LFPB

Paris/Le Bourget Airport

Airport
ICAO code
LFPB
IATA Code
LBG
Summary
ICAO Region
EUR
ICAO Territory
Location

Le Bourget, Bonneuil-en-France, Ile-de-France

Serving
Paris
Elevation
220 ft
Coordinates
48° 57' 41" N , 2° 26' 9" E
KCC
Metar
Observation
LFPB 092000Z AUTO VRB03KT 5000 BR OVC006 01/01 Q1007 TEMPO 0600 FG BKN001
Station
Paris / Le Bourget
Date/Time
2022-12-09 20:00:00
Wind speed
03 kts
Lowest cloud amount
overcast
Temperature
1°C
Dew point
1°C
Humidity
100%
QNH
1007 hPa
Weather condition
n/a

Description

Paris - Le Bourget Airport is an airport located in Le Bourget, Bonneuil-en-France, and Dugny, 6 nm north-northeast (NNE) of Paris, France. It is now used only for general aviation (business jets) as well as air shows.

Climatology

Temperate Marine climate/Oceanic climate (Köppen climate classification Cfb). Moderately cool summer and comparatively warm winter. Prevailing south-westerly winds from the Atlantic Ocean.

Runways

Designator Length Width Surface Rops
9/27 1845 45 ASP Yes/Yes
3/21 2665 60 ASP Yes/Yes
7/25 3000 45 CON Yes/Yes

SKYbrary Partners:

Safety knowledge contributed by: